Theta_e
337 338 337 337 337 336 336 336 336 337 338 339 342 345 346 347 346 345 347 350 352 353 352 352 349 344 343 345 347 345 344 347 347 348 351 350 347 347 345 345 347 347
338 338 337 336 336 335 335 335 334 337 338 338 340 342 343 343 342 342 344 348 351 353 353 353 351 345 342 346 349 345 339 337 337 339 344 344 346 350 348 346 346 346
338 338 337 336 335 335 336 336 336 338 338 338 339 341 341 342 343 343 343 346 349 352 352 354 354 349 344 343 345 343 337 334 333 336 341 343 345 349 349 347 348 347
336 335 335 334 335 336 337 337 338 340 340 340 340 341 341 342 344 346 346 345 346 347 348 349 350 350 349 348 347 344 339 337 336 337 343 346 346 347 347 347 347 347
335 334 335 335 337 339 340 340 340 341 341 342 341 342 343 343 344 345 347 348 347 345 344 344 346 348 352 353 352 348 344 345 345 343 344 347 348 349 348 345 344 346
335 335 335 336 339 342 342 343 343 343 344 344 345 344 344 345 345 345 347 348 348 348 347 347 349 349 350 352 351 348 347 350 352 352 351 350 350 351 350 347 346 347
337 337 337 338 340 341 343 344 343 345 348 348 347 346 345 346 345 344 346 347 348 352 352 351 351 349 346 346 348 349 352 353 353 353 354 352 349 348 348 348 349 349
338 338 338 339 339 340 342 344 346 348 349 348 346 346 346 346 345 346 349 349 349 350 351 353 352 349 346 346 348 350 351 349 346 346 349 350 347 344 345 345 345 348
340 339 340 341 340 339 340 342 347 348 346 346 346 346 347 346 345 349 352 349 346 346 347 349 349 349 348 347 347 348 348 345 342 342 345 348 348 346 345 344 344 346
341 341 341 341 340 340 341 343 346 346 344 345 345 347 351 352 348 349 351 347 346 346 347 347 347 348 348 348 348 348 348 347 346 345 345 346 346 345 344 343 344 344
343 343 342 341 341 341 342 344 344 343 342 344 344 345 349 349 347 348 348 347 348 347 346 347 348 349 349 349 349 348 348 347 348 348 348 347 346 345 344 343 343 342
344 343 343 342 342 342 344 345 343 342 342 343 344 343 343 345 347 347 347 348 349 348 348 348 349 350 351 350 349 349 349 349 348 348 348 348 347 346 345 345 345 345
344 344 344 344 345 345 345 345 343 342 343 345 345 344 344 346 346 345 345 347 348 349 349 349 348 349 350 350 350 350 349 349 348 347 348 348 347 346 346 346 346 347
344 343 344 345 346 347 347 347 346 344 345 346 345 345 345 345 344 344 346 348 348 349 348 348 347 347 348 347 347 347 346 345 345 344 344 343 343 344 345 345 345 346
345 345 346 347 347 347 347 347 347 347 347 347 347 347 347 346 345 346 347 348 348 347 347 346 345 344 342 340 340 339 338 336 335 334 334 334 334 335 336 336 337 337
346 346 347 347 346 346 347 348 348 349 349 349 348 347 347 347 347 347 347 347 346 345 343 340 336 334 332 330 329 328 326 325 325 325 325 326 327 329 331 333 333 333
347 347 347 347 347 348 349 349 349 349 348 348 348 348 348 347 345 343 341 338 335 332 331 330 329 330 330 329 327 325 324 323 324 324 326 327 328 330 332 334 335 336
348 348 349 348 348 348 348 349 349 349 349 348 347 346 342 338 335 331 328 326 325 327 329 331 332 332 332 331 329 328 326 325 326 327 329 331 331 332 333 334 334 334
348 348 348 347 347 347 347 346 345 343 341 339 336 332 329 326 323 323 324 327 329 331 332 333 332 332 332 331 330 329 328 327 328 329 330 330 331 332 332 332 332 332
347 346 345 344 342 339 337 334 331 329 327 325 323 322 321 322 324 326 329 331 332 333 332 332 332 332 331 331 330 330 329 328 328 328 329 329 330 331 331 331 332 332
340 338 336 334 330 328 326 324 322 321 321 320 321 323 326 328 330 331 332 332 332 332 332 332 333 332 331 331 330 329 328 327 327 328 328 328 329 330 330 330 331 331
329 328 326 325 323 322 320 320 320 322 325 326 328 330 332 333 332 332 332 332 332 332 331 331 331 330 329 328 327 325 325 325 324 324 326 326 327 328 328 329 330 330
324 323 322 321 320 321 323 325 327 329 331 331 332 332 332 333 332 332 332 331 330 329 328 327 327 326 325 323 322 322 321 321 321 321 323 324 325 325 326 326 327 327
321 320 320 322 325 327 329 330 331 331 332 332 332 332 332 331 330 329 329 328 327 326 325 325 324 324 322 321 320 320 320 320 320 320 321 322 323 324 325 325 325 325
320 321 324 327 330 330 331 331 330 330 331 331 331 331 329 327 326 326 326 326 325 324 324 323 323 322 321 320 320 320 320 320 320 320 321 322 323 323 324 324 324 324
324 327 329 330 330 331 330 329 330 330 329 329 328 327 326 326 325 325 325 324 323 323 322 321 321 321 321 320 320 320 321 321 321 322 321 321 322 323 323 323 323 324
Wind_Speed
20 21 23 24 24 23 23 24 24 24 23 22 20 18 17 16 17 17 17 17 19 20 20 21 24 24 21 21 22 22 20 20 21 20 21 22 22 19 19 19 19 19
20 21 22 23 24 23 21 22 22 23 23 22 20 19 18 18 18 19 19 18 19 20 20 21 25 26 24 23 23 23 22 21 22 22 22 24 22 20 20 21 21 21
20 20 21 23 24 23 21 21 21 21 21 21 21 20 20 19 18 19 19 20 19 19 19 20 23 26 25 24 24 25 24 23 23 23 24 25 24 22 21 21 22 22
19 19 21 22 22 21 21 21 20 19 19 20 21 21 22 21 19 18 19 21 21 21 22 22 24 25 24 23 24 25 25 25 25 25 25 25 25 24 24 24 23 24
18 19 20 21 20 20 19 19 19 19 20 21 21 22 23 22 20 17 18 20 22 21 22 23 24 23 22 21 23 26 27 27 26 27 28 29 28 26 25 27 28 27
18 19 19 19 19 18 17 16 17 19 20 21 22 22 23 22 19 17 18 21 22 20 20 20 21 22 23 23 26 29 30 29 27 27 28 30 31 28 26 28 27 27
18 19 20 19 18 17 16 16 18 18 18 19 22 24 24 23 19 18 18 20 21 19 18 18 20 25 28 28 28 29 27 27 27 27 27 29 32 31 29 29 26 26
17 20 21 19 19 18 17 18 19 18 19 21 23 23 22 21 19 17 17 19 20 20 21 22 24 28 31 30 29 29 29 31 33 33 31 31 32 31 31 32 29 26
18 19 20 20 20 20 21 21 19 18 20 20 19 19 19 19 18 16 17 21 23 23 25 28 30 32 32 32 32 33 34 36 37 35 33 31 29 29 30 30 29 26
19 19 20 20 22 23 23 22 19 18 20 18 17 15 13 16 18 17 19 23 25 25 26 28 30 32 32 32 33 34 33 31 31 31 31 30 27 28 29 29 29 30
19 19 20 20 22 24 22 20 19 20 21 19 17 17 16 18 21 21 21 23 24 25 26 27 28 29 31 32 33 33 32 29 27 26 28 29 28 28 30 31 31 33
18 19 19 20 21 22 21 20 19 19 19 17 16 18 20 20 20 21 22 23 24 25 25 25 26 25 27 29 31 31 30 29 28 28 29 30 30 30 31 32 31 32
16 17 17 18 19 19 19 19 17 16 16 15 15 16 17 18 20 22 24 24 23 22 21 21 22 23 25 27 27 27 27 28 28 28 29 30 30 29 30 31 32 33
14 14 15 17 16 15 15 14 14 14 15 15 17 17 16 18 21 23 24 24 22 19 17 18 20 23 26 27 27 27 28 29 29 29 30 31 31 29 29 31 30 30
11 11 13 14 13 12 12 11 12 14 14 15 16 15 15 16 18 19 20 21 22 21 21 22 24 25 26 28 30 31 32 32 32 33 33 33 33 33 32 32 32 32
8 9 10 10 10 10 11 11 11 12 13 14 15 16 16 17 18 18 19 20 23 25 26 27 28 27 27 29 32 32 32 32 32 32 32 32 32 32 31 30 30 31
6 6 6 7 7 8 8 9 10 11 12 14 15 17 18 19 20 21 22 23 25 26 27 26 24 22 23 26 29 30 29 30 29 28 28 28 28 27 26 25 25 26
4 3 3 4 5 6 8 9 10 12 13 15 16 18 20 20 22 23 24 24 23 21 20 17 16 17 21 24 26 27 27 27 26 25 24 24 23 23 23 24 25 25
3 2 3 5 6 7 8 9 11 12 14 16 17 19 20 21 22 21 20 18 15 13 13 13 14 18 21 24 25 26 25 24 23 22 22 23 23 23 24 25 25 25
3 3 5 6 7 9 10 12 13 15 17 18 19 19 19 19 18 16 13 11 10 11 11 12 15 19 21 23 25 25 25 24 23 22 22 22 24 24 25 26 25 25
3 5 6 8 10 11 13 14 16 17 18 18 17 16 14 13 11 10 10 9 10 11 11 11 15 19 21 23 25 26 25 24 23 23 23 23 24 24 24 25 24 25
5 6 8 9 11 12 13 14 15 14 13 12 11 9 8 8 8 8 9 9 10 11 12 12 14 19 22 23 24 24 24 24 24 24 23 23 24 24 25 25 24 24
6 7 9 10 11 11 11 10 9 8 7 7 7 6 6 7 7 7 8 10 10 11 12 11 11 15 20 22 23 22 22 22 23 22 21 21 21 22 23 23 23 23
8 9 10 9 8 7 7 6 6 6 5 5 6 6 6 6 7 7 8 9 9 9 10 10 10 12 18 21 21 20 19 20 21 20 19 19 19 19 18 19 20 21
9 9 8 6 5 5 5 5 5 5 5 5 5 5 6 7 8 8 9 8 9 9 10 11 10 10 15 18 18 17 17 18 18 18 18 17 16 16 16 16 18 18
7 6 5 5 4 4 4 5 5 5 5 6 6 6 6 7 8 8 9 9 9 9 9 10 9 10 13 16 17 16 16 16 16 15 15 16 16 16 16 16 16 15
Wind_Direction
260 259 261 264 266 266 267 269 270 271 272 274 272 269 270 270 268 266 262 258 263 268 267 265 267 266 257 252 251 250 248 246 247 247 245 248 249 246 246 248 247 248
264 261 260 261 265 267 266 265 267 267 268 272 273 273 275 277 277 272 264 259 261 266 267 265 267 266 259 251 249 252 253 251 250 250 249 250 249 246 247 249 249 249
265 262 258 257 260 265 266 264 262 262 265 269 273 278 282 283 280 272 264 259 259 262 264 263 264 266 262 255 251 253 256 255 253 251 250 251 250 247 247 249 251 252
260 259 257 255 258 262 264 264 264 266 270 273 276 281 285 287 282 271 262 261 263 264 264 262 262 263 262 258 256 257 259 258 257 257 254 252 251 250 249 248 248 251
258 256 254 253 257 260 262 264 266 270 275 279 284 286 287 289 284 269 257 259 267 270 268 265 262 261 261 260 260 261 263 263 262 263 263 261 258 253 251 253 251 251
258 256 254 251 255 261 264 266 267 270 275 279 284 286 287 288 282 266 256 259 266 268 267 263 258 257 256 256 261 265 268 269 265 263 264 265 265 260 257 258 255 252
256 256 257 256 258 264 268 270 270 270 269 273 280 283 284 283 274 262 258 261 263 265 266 262 257 257 258 259 263 265 268 273 276 274 269 266 266 266 263 259 256 255
256 255 260 264 265 267 270 271 271 270 271 276 279 278 277 275 266 260 259 261 263 269 272 270 266 267 269 268 265 262 264 272 279 282 279 274 270 269 267 265 263 258
262 260 264 269 269 269 269 269 269 272 279 284 283 279 276 269 261 255 257 259 262 267 269 269 270 271 272 270 269 270 273 274 275 275 274 273 273 271 270 270 267 261
269 269 267 267 268 269 269 269 269 272 278 281 282 283 282 274 269 265 265 265 265 265 266 269 271 271 271 272 274 279 282 282 279 275 271 269 270 272 272 271 268 267
270 269 267 264 264 265 267 269 270 273 277 277 276 275 274 276 279 280 279 277 273 271 271 272 273 274 275 277 279 281 281 280 277 275 273 271 270 271 273 272 270 269
270 268 268 266 263 263 261 260 262 268 274 277 276 275 273 274 278 280 281 278 275 275 274 272 273 276 278 280 280 279 276 273 272 273 273 273 273 273 272 271 271 270
263 264 265 263 262 261 257 255 257 262 267 272 277 279 278 276 276 279 280 278 275 277 277 275 275 276 278 279 279 278 276 276 277 277 275 275 277 276 272 272 272 271
252 254 256 257 258 256 253 254 260 263 266 271 275 276 276 274 275 279 280 280 281 283 283 284 282 281 282 282 281 282 283 283 283 281 279 279 280 277 274 274 272 270
247 246 248 251 252 251 252 258 265 268 271 274 278 280 282 283 285 286 285 285 286 287 287 288 288 288 288 286 284 284 283 282 281 280 279 279 278 276 274 273 271 270
235 235 239 245 248 251 259 266 272 276 278 279 283 287 289 292 293 291 288 286 285 286 289 291 293 293 290 286 284 284 283 282 282 281 280 279 278 277 275 272 271 270
216 224 235 246 255 264 271 277 281 284 287 289 292 294 293 294 295 293 293 292 292 294 294 294 296 295 289 285 285 286 286 286 286 285 283 281 279 278 275 274 272 270
192 210 240 261 274 281 283 286 288 289 291 292 293 293 295 296 297 298 300 300 301 301 298 298 299 293 285 284 285 288 290 291 291 289 286 283 280 276 274 274 274 272
199 236 264 276 284 288 289 290 290 290 291 293 294 295 297 299 301 303 303 304 304 302 300 302 295 284 281 283 286 289 292 292 290 287 284 282 280 277 275 275 276 275
234 262 278 288 294 297 299 300 301 301 301 300 301 302 303 304 306 307 307 308 308 305 307 305 293 284 283 285 285 287 288 289 289 288 285 282 280 278 278 279 279 278
257 277 290 301 305 307 308 307 306 305 304 303 304 307 310 311 313 314 314 315 314 309 307 302 294 289 287 284 283 286 290 294 295 293 289 285 283 282 280 279 280 280
284 295 303 307 308 308 308 307 307 308 309 311 315 320 324 324 323 322 318 314 307 300 294 291 291 291 288 288 292 298 302 304 303 299 295 291 289 286 283 281 279 278
304 309 312 313 314 315 316 319 323 329 334 338 338 340 338 333 328 323 316 309 304 303 303 302 301 297 296 302 311 315 315 313 309 305 300 296 293 290 288 284 279 275
323 326 327 329 333 338 343 348 348 348 352 352 352 349 340 334 334 331 327 324 321 324 324 320 319 312 307 312 321 324 322 317 313 309 304 299 296 293 290 288 285 282
339 340 343 352 4 5 3 4 2 3 6 1 0 356 343 343 349 346 342 340 333 332 329 324 328 325 313 315 327 332 328 321 315 310 305 301 298 295 291 289 288 287
353 359 8 20 28 26 27 31 28 19 16 10 9 8 360 359 2 355 349 348 343 341 339 334 337 335 325 327 337 341 334 326 322 318 310 302 299 296 293 290 288 286